Regional Weather Roundup
Issued by NWS

Home | Current Version | Previous Version | Text Only | Print | Product List | Glossary On
Versions: 1 2 3 4 5 6 7 8 9 10 11 12 13 14 15 16 17 18 19 20 21 22 23 24 25 26 27 28 29 30 31 32 33 34 35 36 37 38 39 40 41 42 43 44 45 46 47 48 49 50
000
ASUS45 KBOI 260410
RWRID

IDAHO REGIONAL WEATHER ROUNDUP
NATIONAL WEATHER SERVICE BOISE ID
1000 PM MDT THU MAY 25 2017

NOTE: "FAIR" INDICATES FEW OR NO CLOUDS BELOW 12000 FEET
WITH NO SIGNIFICANT WEATHER AND/OR OBSTRUCTIONS TO VISIBILITY

IDZ012-014-260500-
SOUTHWEST IDAHO


CITY           SKY/WX    TMP DP  RH WIND       PRES   REMARKS
BOISE          PTCLDY    57  37  47 NW13      29.75R
CALDWELL       PTCLDY    54  41  61 W13       29.76R
MOUNTAIN HOME  MOCLDY    57  33  40 NW8       29.75R
$$

IDZ016-017-260500-
SOUTHCENTRAL IDAHO


CITY           SKY/WX    TMP DP  RH WIND       PRES   REMARKS
BURLEY         MOCLDY    54  35  48 E5        29.75R
JEROME         MOCLDY    56  31  38 NW3       29.77R
TWIN FALLS     CLOUDY    53  35  50 W3        29.77R
$$

IDZ019>023-260500-
SOUTHEAST IDAHO


CITY           SKY/WX    TMP DP  RH WIND       PRES   REMARKS
IDAHO FALLS    CLOUDY    53  32  44 SW5       29.81R
POCATELLO      CLOUDY    49  34  56 SE7       29.79R
REXBURG        CLOUDY    53  32  44 NE7       29.81R
$$

IDZ006-010-011-018-031-032-260500-
CENTRAL IDAHO MOUNTAINS


CITY           SKY/WX    TMP DP  RH WIND       PRES   REMARKS
MCCALL         LGT RAIN  43  39  86 N9        29.81R
HAILEY         MOCLDY    48  36  61 CALM      29.80R
STANLEY          N/A     39  37  92 CALM      29.84S
SALMON         CLOUDY    54  34  47 S13G20    29.81R
CHALLIS        CLOUDY    45  41  86 NW8       29.83R
$$

IDZ002-004-006-007-026-260500-
NORTHERN IDAHO


CITY           SKY/WX    TMP DP  RH WIND       PRES   REMARKS
LEWISTON       MOCLDY    57  42  57 S5        29.82S
LOWELL           N/A     52  45  77 CALM      29.82R
COEUR D`ALENE  PTCLDY    54  43  66 W5        29.85R
MULLAN PASS    CLOUDY    41  34  76 N5        29.89R
$$



USA.gov is the U.S. government's official web portal to all federal, state and local government web resources and services.